Skip Page Navigation
NASA JPL Caltech
NASA Logo - Jet Propulsion Laboratory + View the NASA Portal
+ Center for Near-Earth Object Studies
JPL Home Earth Solar System Stars & Galaxies Technology
JPL Solar System Dynamics
BODIES ORBITS EPHEMERIDES TOOLS PHYSICAL DATA DISCOVERY FAQ SITE MAP
JPL Small-Body Database Browser
Search: [ help ]  
70313 (1999 RK138)
Classification: Main-belt Asteroid          SPK-ID: 2070313
Ephemeris | Orbit Diagram | Orbital Elements | Mission Design | Physical Parameters | Discovery Circumstances | Close-Approach Data ]

[ show orbit diagram ]
Orbital Elements at Epoch 2459000.5 (2020-May-31.0) TDB
Reference: JPL 23 (heliocentric ecliptic J2000)
 Element Value Uncertainty (1-sigma)   Units 
e .1753043084524535 3.4864e-08  
a 2.386966794679277 1.0879e-08 au
q 1.968521231439057 8.4731e-08 au
i 2.69343744402826 4.5851e-06 deg
node 23.44359970209596 8.295e-05 deg
peri 282.7471197011897 8.4124e-05 deg
M 246.7124987593837 1.6224e-05 deg
tp 2459424.384455067557
(2021-Jul-28.88445507)
6.1968e-05 TDB
period 1347.001232732727
3.69
9.2087e-06
2.521e-08
d
yr
n .2672603344761982 1.8271e-09 deg/d
Q 2.805412357919498 1.2786e-08 au
  Orbit Determination Parameters
   # obs. used (total)      883  
   data-arc span      7529 days (20.61 yr)  
   first obs. used      1999-09-07  
   last obs. used      2020-04-18  
   planetary ephem.      DE431  
   SB-pert. ephem.      SB431-N16  
   condition code      0  
   norm. resid. RMS      .55613  
   source      ORB  
   producer      Otto Matic  
   solution date      2020-May-20 13:37:05  

Additional Information
 Earth MOID = .955761 au 
 Jupiter MOID = 2.43956 au 
 T_jup = 3.512 
[ show covariance matrix ]

Ephemeris | Orbit Diagram | Orbital Elements | Mission Design | Physical Parameters | Discovery Circumstances | Close-Approach Data ]

Physical Parameter Table
Parameter Symbol Value Units Sigma Reference Notes
absolute magnitude H 15.7   n/a MPO417313  
diameter diameter 4.134 km 0.020 urn:nasa:pds:neowise_diameters_albedos::2.0[mainbelt] (http://adsabs.harvard.edu/abs/2011ApJ...741...68M)  
geometric albedo albedo 0.037   0.009 urn:nasa:pds:neowise_diameters_albedos::2.0[mainbelt] (http://adsabs.harvard.edu/abs/2011ApJ...741...68M)  

70313 (1999 RK138)          Discovered 1999-Sep-09 by LINEAR at Socorro
Reference: 20031109/Numbers.arcLast Updated: 2004-04-19

[ hide close-approach data ]
Close-Approach Data   ...sorted by Date/Time (TDB)
Date/Time (TDB) Time Uncertainty
(days_HH:MM)
Body Nominal Distance (au) Minimum Distance (au) Maximum Distance (au) V-relative (km/s) V-infinity (km/s) JD (TDB) Time Uncertainty (minutes) Semi-major axis (km) Semi-minor axis (km) range-LOV angle (deg) N-sigma BP Orbit Ref. Reference Modified
2005-Mar-13 19:20 < 00:01 Europ 0.048908994590436 0.0489079290952688 0.0489100600927164 3.83056029487854 3.83056023814751 2453443.305522393 0.803243323545797 67.9498385030738 38.2755245026813 49.0519926678615 160587.180634346 T 23 CATAB v2.0f-lin.ifort 2020-May-20 13:37:26 2020-May-20 13:37
Ephemeris | Orbit Diagram | Orbital Elements | Mission Design | Physical Parameters | Discovery Circumstances | Close-Approach Data ]
ABOUT SSD CREDITS/AWARDS PRIVACY/COPYRIGHT GLOSSARY LINKS
FirstGov 2020-Oct-27 09:33 UT
(server date/time)  
NASA Home Page
Site Manager:   Ryan S. Park
Webmaster  Alan B. Chamberlin